Location: Laura�t
(43.9341°N, 0.2497°E)
Time: 23:23:22
(UTC+00:00)

SJ 16-02 - Pass Details

Date: 03 March 2021
Orbit: 605 x 617 km, 75.0° (Epoch: 17 April)

Event Time Altitude Azimuth Distance (km) Brightness Sun altitude
Rises 19:34:47 0° 352° (N) 2,882 5.0 -19.6°
Reaches altitude 10° 19:37:26 10° 7° (N) 1,975 4.0 -20.0°
Enters shadow 19:39:28 19° 32° (NNE) 1,458 3.0 -20.4°
